Home > Weather > Hürth > Past weeks

Flag for Germany Past Weather in Hürth, North Rhine-Westphalia, Germany — Yesterday and Last 2 Weeks

Now
68 °F

Light rain. Partly sunny.


Feels Like: 68 °F
Forecast: 61 / 75 °F
Wind: 10 mph from Northwest

Location: Noervenich

Current Time: Jul 26, 2016 at 4:09:51 PM

Latest Report: Jul 26, 2016 at 3:20 PM


Visibility: N/A

Pressure: 30.15 "Hg

Humidity: 69%

Dew Point: 57 °F

Location of HürthLocation

Past Weather in Hürth — Graph

°F

Hürth Temperature Yesterday

Maximum temperature yesterday: 79 °F (at 2:20 PM)
Minimum temperature yesterday: 64 °F (at 4:20 AM)
Average temperature yesterday: 72 °F

High & Low Weather Summary for the Past Weeks

 TemperatureHumidityPressure
High95 °F (Jul 20, 3:20 PM)100% (Jul 24, 3:20 AM)30.33 "Hg (Jul 24, 3:20 AM)
Low50 °F (Jul 14, 3:20 AM)26% (Jul 20, 3:20 PM)29.86 "Hg (Jul 11, 2:20 PM)
Average69 °F70%30.08 "Hg
* Reported Jul 11 2:20 PM — Jul 26 2:20 PM, Hürth, Weather by CustomWeather, © 2016

Note: Actual official high and low records may vary slightly from our data, if they occured in-between our weather recording intervals... More about our weather records

Advertising

Hürth Weather History for the Previous 24 Hours

Scroll right to see more
 ConditionsComfort  
Time TempWeatherWind HumidityBarometerVisibility
2:20 PM
Tue, Jul 26
70 °FLight rain. Broken clouds.9 mph64%30.15 "HgN/A
1:20 PM70 °FPartly sunny.6 mph60%30.15 "HgN/A
11:20 AM72 °FBroken clouds.2 mph61%30.15 "HgN/A
10:20 AM70 °FBroken clouds.5 mph60%30.15 "HgN/A
9:20 AM68 °FBroken clouds.2 mph69%30.15 "HgN/A
8:20 AM64 °FPartly sunny.5 mph78%30.15 "HgN/A
7:20 AM64 °FScattered clouds.2 mph78%30.12 "HgN/A
6:20 AM63 °FPassing clouds.6 mph83%30.12 "HgN/A
5:20 AM63 °FPartly cloudy.7 mph83%30.12 "HgN/A
4:20 AM63 °FPartly cloudy.7 mph83%30.12 "HgN/A
3:20 AM64 °FPartly cloudy.5 mph83%30.12 "HgN/A
2:20 AM66 °FPartly cloudy.8 mph88%30.12 "HgN/A
1:20 AM68 °FPartly cloudy.5 mph83%30.12 "HgN/A
12:20 AM70 °FPartly cloudy.5 mph83%30.12 "HgN/A
11:20 PM
Mon, Jul 25
72 °FPartly cloudy.6 mph73%30.12 "HgN/A
10:20 PM72 °FPartly sunny.5 mph73%30.12 "HgN/A
9:20 PM73 °FPartly sunny.6 mph69%30.09 "HgN/A
8:20 PM75 °FPartly sunny.6 mph65%30.09 "HgN/A
7:20 PM77 °FBroken clouds.10 mph61%30.09 "HgN/A
5:20 PM79 °FBroken clouds.14 mph58%30.09 "HgN/A
4:20 PM79 °FBroken clouds.12 mph54%30.09 "HgN/A
Weather by CustomWeather, © 2016

See weather overviewHow to use our weather pages